sat.trackr.live / text

‹ back to catalog

STARLINK-2575

NORAD 48396 · 2021-038AV

PAYLOAD ACTIVE UNKNOWN

§ Identity

Operator
Country
US
Launch date
2021-05-04
Launch site
AFETR
Launch vehicle
Mass (kg)
RCS (m²)

Purposes: comms

External: N2YO · Heavens-Above · Gunter

§ Orbital elements

Epoch: 2026-09-20T02:38:12.689376Z

Period
94.01 min
Inclination
53.1602°
Eccentricity
0.0001167
Mean motion
15.31702049 rev/d
Perigee alt
469.9 km
Apogee alt
471.5 km
Semi-major
6,848.9 km
B*
6.6367e-5
RAAN
147.7102°
Arg perigee
90.0433°
Mean anomaly
270.0702°
Rev number
29,845

§ Raw data

STARLINK-25751 48396U 21038AV  26263.10986909  .00001695  00000+0  66367-4 0  99972 48396  53.1602 147.7102 0001167  90.0433 270.0702 15.31702049298453

JSON: /api/v1/satellites/48396 · /tle

For live sub-satellite position, see the globe view (requires WebGL).

§ Visibility from observer

Set your observer location to see the next 7 days of passes ≥ 10°. The values pass through the URL so the page stays shareable.

No JS? Fill the form by hand. The geolocation button needs JavaScript.